Location: Port-Aux-Quilles Astronomical Observatory
(47.9769°N, 69.9642°W)
Time: 12:13:01
(UTC-05:00)

Envisat - Pass Details

Date: 24 October 2019
Orbit: 764 x 766 km, 98.1° (Epoch: 22 November)

Event Time Altitude Azimuth Distance (km) Brightness Sun altitude
Rises 19:21:43 0° 189° (S) 3,220 6.3 -18.4°
Reaches altitude 10° 19:24:11 10° 198° (SSW) 2,299 5.6 -18.9°
Maximum altitude 19:28:49 35° 264° (W) 1,216 4.6 -19.6°
Drops below altitude 10° 19:33:29 10° 330° (NNW) 2,314 5.9 -20.4°
Sets 19:36:00 0° 340° (NNW) 3,245 6.6 -20.8°
